Location: Sommers-Bausch Observatory
(40.0037°N, 105.2635°W)
Time: 17:48:57
(UTC-07:00)

Daily predictions for brighter satellites

Satellite Brightness Start Highest point End
(mag) Time Altitude Azimuth Time Altitude Azimuth Time Altitude Azimuth
Cosmos 1536 3.0 17:00:11 10° N 17:04:16 83° W 17:08:20 10° S
YAOGAN 1 3.1 17:01:11 10° SE 17:05:11 38° ENE 17:09:12 10° N
SPOT 3 Rocket 3.8 17:00:37 10° SE 17:05:36 49° ENE 17:10:36 10° N
Cosmos 1812 3.7 17:02:45 10° SSE 17:06:02 27° E 17:09:21 10° NNE
Cosmos 372 Rocket 4.3 17:01:39 10° SSW 17:06:53 73° WNW 17:12:09 10° NNE
CZ-3A R/B 3.3 17:04:12 10° WSW 17:08:15 60° NNW 17:27:48 10° NE
IRS-1A Rocket 4.4 17:04:36 10° SSE 17:10:06 82° WSW 17:15:38 10° NNW
ISS -2.3 17:08:17 10° WSW 17:11:24 38° NNW 17:14:32 10° NE
USA 234 3.4 17:05:16 10° NE 17:11:48 75° NW 17:18:18 10° WSW
Cosmos 1844 Rocket 2.7 17:06:16 10° SSW 17:11:51 86° ESE 17:17:31 10° NNE
AQUARIUS 4.3 17:10:38 10° SSE 17:15:00 55° ENE 17:19:25 10° N
BREEZE M DEB (TANK) 3.9 17:13:55 10° NW 17:16:33 24° NNE 17:21:54 10° ENE
USA 32 4.0 17:12:51 10° S 17:18:00 64° E 17:23:10 10° N
Cosmos 1346 Rocket 4.2 17:15:26 10° SE 17:18:06 18° E 17:20:46 10° NE
Meteor 2-19 Rocket 4.4 17:16:34 10° N 17:22:38 69° E 17:28:38 10° SSE
SL-8 Rocket 3.9 17:18:35 10° N 17:24:47 80° E 17:30:55 10° S
NOSS 3-3 (A) 4.3 17:19:05 10° S 17:24:59 51° ESE 17:31:18 10° NE
NOSS 3-3 (C) 4.3 17:19:12 10° S 17:25:05 50° ESE 17:31:23 10° NE
IDEFIX/ARIANE 42P 2.5 17:21:04 10° SSE 17:26:14 73° ENE 17:31:25 10° N
Cosmos 1455 Rocket 3.2 17:21:58 10° N 17:26:17 51° E 17:30:35 10° SSE
Cosmos 494 Rocket 4.1 17:22:02 10° N 17:27:10 53° ENE 17:32:18 10° SE
CORIOLIS 4.1 17:22:03 10° SSE 17:27:25 67° ENE 17:32:46 10° N
Cosmos 1844 3.7 17:23:17 10° SSW 17:28:50 88° ESE 17:34:26 10° NNE
Abrixas 4.3 17:32:01 10° NW 17:34:08 17° N 17:35:12 15° NE
ATLAS 2AS CENTAUR R/B 3.0 17:26:18 10° NNW 17:34:25 79° NE 17:41:58 10° SE
Cosmos 2366 rocket 4.0 17:29:42 10° N 17:36:04 72° E 17:42:21 10° SSE
CZ-4 R/B 2.1 17:34:23 10° S 17:38:30 59° W 17:42:37 10° NNW
OTV 4 3.1 17:36:21 10° WSW 17:38:32 19° SSW 17:40:44 10° SSE
Cosmos 1959 Rocket 4.5 17:33:30 10° N 17:39:42 87° E 17:45:58 10° S
Cosmos 2218 Rocket 4.0 17:34:30 10° N 17:40:49 88° E 17:47:02 10° S
MSX 3.8 17:35:29 10° SSE 17:41:10 68° ENE 17:46:53 10° N
SMAP 3.2 17:37:08 10° S 17:41:47 77° WSW 17:46:28 10° NNW
Thor Agena Rocket 3.8 17:37:49 10° N 17:43:01 73° WNW 17:48:15 10° SSW
SL-24 DEB 4.3 17:38:56 10° NNE 17:43:36 55° E 17:48:12 10° S
Cosmos 2278 Rocket 2.1 17:39:40 10° SSW 17:45:18 73° ESE 17:50:57 10° NNE
MONITOR-E 4.3 17:42:22 10° SSE 17:45:29 54° ENE 17:48:37 10° N
Cosmos 1238 Rocket 2.3 17:43:10 10° SSW 17:46:05 70° W 17:49:06 10° N
Cosmos 1975 2.9 17:43:19 10° N 17:47:19 55° E 17:51:17 10° SSE
CZ-2C R/B 2.9 17:44:03 10° S 17:48:58 66° W 17:54:03 10° NNW
SL-27 R/B 3.8 17:50:30 10° NNW 17:54:00 44° WSW 17:57:27 10° S
Cosmos 2251 Rocket 3.7 17:48:58 10° NNW 17:54:20 75° WSW 17:59:37 10° S
Timation 2 Rocket 4.5 17:48:37 10° NNW 17:55:05 43° ENE 18:01:34 10° SE
Meteor 1-12 Rocket 4.3 17:49:26 10° N 17:55:16 87° E 18:01:10 10° S
Genesis I 3.7 17:53:08 10° NNW 17:56:51 38° NE 17:58:26 26° E
OE (NEXTSAT) 4.4 17:55:02 10° SW 17:58:35 69° SSE 17:59:57 35° ENE
COSMOS 2441 4.3 17:55:26 10° SSE 18:00:18 86° ENE 18:05:13 10° NNW
Cosmos 1484 Rocket 2.5 18:00:23 10° SSE 18:04:08 77° ENE 18:07:52 10° N
SL-8 R/B 3.8 18:01:42 10° WSW 18:06:28 71° NNW 18:08:49 30° NE
NOAA 12 4.4 18:01:36 10° SE 18:06:30 41° ENE 18:11:24 10° N
Cosmos 1821 Rocket 4.3 18:05:06 10° N 18:10:49 40° ENE 18:16:30 10° SE
DMSP B5D1-3 4.5 18:05:49 10° NNE 18:10:52 62° ESE 18:15:56 10° S
Cosmos 2082 Rocket 2.5 18:06:00 10° N 18:11:24 43° ENE 18:15:50 15° SE
Cosmos 1833 Rocket 3.1 18:07:35 10° N 18:12:50 38° ENE 18:14:56 28° ESE
Meteor 1-13 Rocket 4.2 18:08:03 10° S 18:13:36 62° E 18:19:19 10° NNE
METEOR-M 4.4 18:09:55 10° SE 18:14:53 41° ENE 18:19:52 10° N
COSMO-SKYMED 1 2.5 18:11:18 10° NNE 18:15:39 85° W 18:19:58 10° SSW
Cosmos 1500 3.2 18:12:48 10° N 18:16:39 79° W 18:20:29 10° S
Meteor 2-21 4.4 18:10:55 10° N 18:17:08 83° E 18:23:15 10° S
Meteor 1-28 Rocket 3.1 18:20:30 54° NE 18:21:06 63° E 18:24:51 10° S
NOSS 2-1 (D) 3.7 18:17:30 10° S 18:20:55 41° SE 18:20:55 41° SE
NOSS 2-1 (C) 3.8 18:18:12 10° S 18:21:34 41° SE 18:21:34 41° SE
CZ-3B DEB 3.1 18:20:56 10° W 18:25:03 48° NNW 18:30:57 21° NE
BREEZE-M R/B 4.3 18:18:01 10° WSW 18:28:17 65° NNW 18:30:32 35° NE
Tiangong 1 1.9 18:26:38 10° WSW 18:28:54 44° SW 18:28:54 44° SW
SL-24 R/B - RUBIN 2 4.5 18:25:35 10° SSW 18:31:51 89° WNW 18:35:38 28° NNE
Nadezhda 3 Rocket 4.0 18:26:44 10° S 18:32:55 82° W 18:39:14 10° N
Timation 1 Rocket 4.2 18:30:22 10° SSW 18:36:17 74° ESE 18:38:38 39° NE
GEOS 3 Rocket 3.4 18:34:43 22° SE 18:38:09 88° NE 18:43:18 10° NW
Meteor 2-14 Rocket 4.4 18:32:52 10° N 18:39:04 90° NE 18:45:12 10° S
Meteor 2-4 Rocket 3.5 18:34:52 10° S 18:40:09 60° E 18:40:40 57° ENE
NOSS 2-1 (E) 3.8 18:36:33 10° SSW 18:39:32 49° S 18:39:32 49° S
Cosmos 2056 Rocket 4.3 18:37:34 10° S 18:41:14 36° SE 18:41:14 36° SE
Cosmos 1025 Rocket 3.6 18:41:16 10° S 18:44:25 47° SSE 18:44:25 47° SSE
COSMOS 2487 3.4 18:42:22 10° NNW 18:45:51 47° WSW 18:47:28 27° SSW
ISS -0.4 18:46:58 10° NW 18:47:34 12° NNW 18:47:34 12° NNW
Cosmos 921 Rocket 3.2 18:47:00 10° SSW 18:51:12 65° WNW 18:51:27 64° NW
Cosmos 1371 Rocket 3.9 18:55:27 10° SSW 19:00:34 82° SSE 19:00:34 82° SSE
NOSS 3-4 (A) 3.9 19:03:10 10° NNW 19:09:29 57° NNE 19:09:29 57° NNE
NOSS 3-4 (C) 3.9 19:03:16 10° NNW 19:09:33 57° NNE 19:09:33 57° NNE
FALCON 9 R/B 3.1 18:55:46 10° WSW 19:14:20 62° S 19:15:38 54° SE
Cosmos 1934 Rocket 4.5 19:24:43 10° NNW 19:30:46 58° W 19:36:54 10° S
ATLAS 3B CENTAUR R/B 4.0 19:41:44 10° WSW 19:53:05 33° SSW 19:53:29 33° SSW
Cosmos 2082 Rocket 4.1 19:50:37 10° NW 19:55:11 26° WSW 19:57:59 17° SW
Cosmos 1833 Rocket 4.4 19:51:48 10° NW 19:56:35 29° WSW 19:56:48 29° WSW
